Latest Coastal Weather Observations for Cape Otway

IDV60701

Issued at 3:25 am EDT Tuesday 25 November 2014 (issued every 10 minutes, with the page automatically refreshed every 10 minutes)

About coastal observations | Map of coastal stations | Coastal observations for VIC | Marine services | Other Formats
Station Details ID: 090015 Name: CAPE OTWAY LIGHTHOUSE Lat: -38.86 Lon: 143.51 Height: 82.0 m
Data from the previous 72 hours. | See also: Recent months at Cape Otway
Date/Time
EDT
Temp

°C
Wind Pressure Rain
since 9am
mm
Weather Cloud Vis
km
Sea
Height
m
Swell
Dir
 
Speed
knots
Gust
knots
hPa Trend Height
m
Period
s
Dir
25/03:16am 12.2 WSW 17 29 1013.4 - 3.8 - - - - - - -
25/03:04am 11.1 W 19 23 1013.4 - 3.8 - - - - - - -
25/03:00am 11.8 WSW 24 34 1013.4 - 3.8 - - - - - - -
25/02:59am 12.1 WSW 25 34 1013.3 - 3.2 - - - - - - -
25/02:41am 12.6 W 20 30 1013.2 - 3.0 - - - - - - -
25/02:39am 12.6 W 20 30 1013.2 - 3.0 - - - - - - -
25/02:30am 12.1 W 21 30 1013.2 - 3.0 - - - - - - -
25/02:06am 12.7 W 17 27 1012.9 - 3.0 - - - - - - -
25/02:04am 12.7 W 17 27 1012.9 - 3.0 - - - - - - -
25/02:00am 12.6 W 16 25 1013.0 - 3.0 - - - - - - -
25/01:30am 13.5 W 20 27 1012.9 - 2.0 - - - - - - -
25/01:14am 13.1 W 16 27 1012.9 - 2.0 - - - - - - -
25/01:12am 13.1 W 16 27 1012.9 - 2.0 - - - - - - -
25/01:00am 13.0 W 19 25 1013.0 - 2.0 - - - - - - -
25/12:30am 12.2 W 20 26 1013.0 - 2.0 - - - - - - -
25/12:03am 13.8 W 21 32 1012.5 - 1.6 - - - - - - -
25/12:01am 13.8 W 21 32 1012.5 - 1.6 - - - - - - -
25/12:00am 13.8 W 20 28 1012.6 - 1.6 - - - - - - -
 
Date/Time
EDT
Temp

°C
Wind Pressure Rain
since 9am
mm
Weather Cloud Vis
km
Sea
Height
m
Swell
Dir
 
Speed
knots
Gust
knots
hPa Trend Height
m
Period
s
Dir
24/11:30pm 13.7 W 21 31 1012.6 - 1.6 - - - - - - -
24/11:09pm 13.4 WSW 17 29 1012.6 - 1.6 - - - - - - -
24/11:07pm 13.4 WSW 18 29 1012.6 - 1.6 - - - - - - -
24/11:00pm 13.3 WSW 18 24 1012.8 - 1.6 - - - - - - -
24/10:54pm 13.3 WSW 19 26 1012.8 - 1.6 - - - - - - -
24/10:51pm 13.6 WSW 17 24 1012.8 - 1.6 - - - - - - -
24/10:30pm 13.8 W 20 26 1012.7 - 1.6 - - - - - - -
24/10:00pm 13.8 W 19 27 1012.5 - 1.6 - - - - - - -
24/09:30pm 13.6 W 22 30 1012.1 - 1.6 - - - - - - -
24/09:00pm 13.5 W 21 28 1011.7 - 1.6 - - - - - - -
24/08:30pm 14.1 W 19 25 1011.4 - 1.6 - - - - - - -
24/08:00pm 14.4 W 19 27 1011.0 - 1.6 - - - - - - -
24/07:30pm 14.7 W 20 30 1010.5 - 1.6 - - - - - - -
24/07:15pm 14.5 W 20 30 1010.1 - 1.6 - - - - - - -
24/07:00pm 14.6 W 19 28 1009.6 - 1.6 - - - - - - -
24/06:34pm 14.6 WSW 18 28 1008.9 - 1.6 - - - - - - -
24/06:32pm 14.6 WSW 18 28 1008.9 - 1.6 - - - - - - -
24/06:30pm 14.8 WSW 19 28 1008.8 - 1.6 - - - - - - -
24/06:00pm 14.2 W 16 23 1008.7 - 1.6 - - - - - - -
24/05:30pm 13.8 W 15 21 1008.8 - 1.6 - - - - - - -
24/05:00pm 13.4 W 17 22 1008.7 - 1.6 - - - - - - -
24/04:30pm 12.6 W 18 25 1008.5 - 1.6 - - - - - - -
24/04:11pm 13.3 WSW 19 31 1008.2 - 1.6 - - - - - - -
24/04:09pm 13.3 WSW 19 31 1008.2 - 1.6 - - - - - - -
24/04:00pm 13.4 WSW 21 29 1008.2 - 1.6 - - - - - - -
24/03:30pm 14.6 W 19 31 1007.7 - 1.4 - - - - - - -
24/03:28pm 15.3 W 16 27 1007.6 - 1.4 - - - - - - -
24/03:26pm 15.3 W 16 27 1007.6 - 1.4 - - - - - - -
24/03:00pm 16.4 W 16 20 1007.8 R 1.4 Distant precip. Mostly cloudy 20 2 2.0 9 SW
24/02:30pm 16.2 W 11 16 1007.9 - 1.4 - - - - - - -
24/02:00pm 16.1 W 9 15 1008.0 - 1.4 - - - - - - -
24/01:30pm 16.0 W 9 14 1007.9 - 1.4 - - - - - - -
24/01:00pm 16.0 WNW 13 18 1007.8 - 1.4 - - - - - - -
24/12:30pm 14.9 WNW 13 19 1007.8 - 1.4 - - - - - - -
24/12:00pm 14.9 W 9 11 1008.0 - 1.4 - - - - - - -
24/11:30am 14.7 WNW 5 7 1008.2 - 1.4 - - - - - - -
24/11:00am 15.0 NW 5 7 1008.1 - 0.2 - - - - - - -
24/10:30am 15.2 WNW 5 7 1008.1 - 0.2 - - - - - - -
24/10:00am 14.9 N 3 5 1008.5 - 0.2 - - - - - - -
24/09:30am 14.6 W 7 10 1008.9 - 0.0 - - - - - - -
24/09:00am 14.5 NW 4 7 1008.9 F 2.2 Thunder Cloudy 20 1 2.0 9 SW
24/08:30am 13.8 ENE 6 9 1008.4 - 2.2 - - - - - - -
24/08:00am 13.7 ENE 7 10 1008.7 - 2.2 - - - - - - -
24/07:30am 13.5 NE 7 11 1009.1 - 2.2 - - - - - - -
24/07:00am 14.3 N 5 11 1008.7 - 2.0 - - - - - - -
24/06:44am 14.4 NW 8 14 1009.8 - 0.2 - - - - - - -
24/06:42am 14.4 NE 8 14 1009.8 - 0.2 - - - - - - -
24/06:30am 14.3 ENE 11 16 1007.2 - 0.2 - - - - - - -
24/06:00am 14.6 ENE 13 17 1007.8 - 0.2 - - - - - - -
24/05:30am 14.7 E 7 10 1008.3 - 0.2 - - - - - - -
24/05:00am 14.3 E 11 15 1008.0 - 0.2 - - - - - - -
24/04:30am 14.6 E 10 14 1008.3 - 0.2 - - - - - - -
24/04:00am 14.6 E 7 11 1009.1 - 0.0 - - - - - - -
24/03:30am 14.4 ENE 10 13 1009.5 - 0.0 - - - - - - -
24/03:00am 14.1 E 8 11 1009.8 - 0.0 - - - - - - -
24/02:30am 14.5 ENE 7 9 1010.7 - 0.0 - - - - - - -
24/02:00am 15.0 NE 10 12 1011.2 - 0.0 - - - - - - -
24/01:30am 14.5 ENE 8 10 1011.6 - 0.0 - - - - - - -
24/01:00am 14.9 NE 9 12 1011.9 - 0.0 - - - - - - -
24/12:30am 14.8 NE 9 13 1012.2 - 0.0 - - - - - - -
24/12:00am 14.7 NNE 8 10 1012.9 - 0.0 - - - - - - -
 
Date/Time
EDT
Temp

°C
Wind Pressure Rain
since 9am
mm
Weather Cloud Vis
km
Sea
Height
m
Swell
Dir
 
Speed
knots
Gust
knots
hPa Trend Height
m
Period
s
Dir
23/11:30pm 14.9 NNE 9 12 1013.2 - 0.0 - - - - - - -
23/11:00pm 14.3 NE 9 11 1013.1 - 0.0 - - - - - - -
23/10:30pm 14.2 NNE 9 11 1013.3 - 0.0 - - - - - - -
23/10:00pm 14.1 NNE 9 11 1013.4 - 0.0 - - - - - - -
23/09:30pm 14.0 NNE 9 12 1013.1 - 0.0 - - - - - - -
23/09:00pm 14.4 NE 9 11 1013.0 - 0.0 - - - - - - -
23/08:30pm 14.7 ENE 8 12 1013.3 - 0.0 - - - - - - -
23/08:00pm 15.0 ENE 7 13 1012.6 - 0.0 - - - - - - -
23/07:30pm 15.5 E 4 6 1012.8 - 0.0 - - - - - - -
23/07:00pm 15.7 SE 2 4 1013.0 - 0.0 - - - - - - -
23/06:30pm 16.2 SSE 1 4 1013.1 - 0.0 - - - - - - -
23/06:00pm 16.2 WSW 3 5 1013.1 - 0.0 - - - - - - -
23/05:30pm 16.3 WSW 4 6 1013.2 - 0.0 - - - - - - -
23/05:00pm 16.7 WSW 6 8 1013.0 - 0.0 - - - - - - -
23/04:30pm 16.9 WSW 7 9 1013.2 - 0.0 - - - - - - -
23/04:00pm 16.9 WSW 6 8 1012.9 - 0.0 - - - - - - -
23/03:30pm 16.7 WSW 10 11 1013.0 - 0.0 - - - - - - -
23/03:00pm 17.1 WSW 11 14 1012.7 R 0.0 Fine Mostly clear 20 1 2.0 9 S
23/02:30pm 17.3 WSW 11 15 1012.8 - 0.0 - - - - - - -
23/02:00pm 17.5 WSW 11 13 1012.6 - 0.0 - - - - - - -
23/01:30pm 17.5 WSW 12 15 1012.1 - 0.0 - - - - - - -
23/01:00pm 17.6 WSW 11 15 1012.1 - 0.0 - - - - - - -
23/12:30pm 17.3 WSW 10 13 1012.4 - 0.0 - - - - - - -
23/12:00pm 17.2 WSW 11 13 1012.7 - 0.0 - - - - - - -
23/11:30am 16.7 WSW 11 13 1012.8 - 0.0 - - - - - - -
23/11:00am 17.1 WSW 9 12 1012.8 - 0.0 - - - - - - -
23/10:30am 17.1 W 8 12 1013.0 - 0.0 - - - - - - -
23/10:00am 16.7 W 8 11 1013.1 - 0.0 - - - - - - -
23/09:30am 16.9 W 7 9 1013.3 - 0.0 - - - - - - -
23/09:00am 16.1 WNW 6 10 1013.0 R 0.0 Fine Mostly clear 20 1 1.0 8 SE
23/08:30am 15.7 WNW 6 9 1012.9 - 0.0 - - - - - - -
23/08:00am 15.3 NNW 6 8 1012.6 - 0.0 - - - - - - -
23/07:30am 14.3 NNW 6 9 1012.4 - 0.0 - - - - - - -
23/07:00am 13.3 NNW 5 7 1012.0 - 0.0 - - - - - - -
23/06:30am 12.3 NNW 7 8 1011.5 - 0.0 - - - - - - -
23/06:00am 12.4 NNW 7 9 1010.9 - 0.0 - - - - - - -
23/05:30am 13.5 NW 6 8 1010.8 - 0.0 - - - - - - -
23/05:00am 14.2 W 7 11 1010.5 - 0.0 - - - - - - -
23/04:30am 14.3 WNW 9 12 1010.3 - 0.0 - - - - - - -
23/04:00am 14.5 W 11 14 1010.1 - 0.0 - - - - - - -
23/03:30am 14.5 W 12 15 1010.0 - 0.0 - - - - - - -
23/03:00am 14.6 W 13 18 1010.0 - 0.0 - - - - - - -
23/02:30am 14.6 W 11 15 1010.1 - 0.0 - - - - - - -
23/02:00am 14.5 WNW 9 14 1010.0 - 0.0 - - - - - - -
23/01:30am 14.9 W 10 15 1010.1 - 0.0 - - - - - - -
23/01:00am 15.2 W 12 16 1010.1 - 0.0 - - - - - - -
23/12:30am 15.4 W 12 17 1010.0 - 0.0 - - - - - - -
23/12:00am 15.7 W 10 14 1009.7 - 0.0 - - - - - - -
 
Date/Time
EDT
Temp

°C
Wind Pressure Rain
since 9am
mm
Weather Cloud Vis
km
Sea
Height
m
Swell
Dir
 
Speed
knots
Gust
knots
hPa Trend Height
m
Period
s
Dir
22/11:30pm 15.7 W 10 15 1009.4 - 0.0 - - - - - - -
22/11:00pm 16.0 W 12 15 1009.4 - 0.0 - - - - - - -
22/10:30pm 16.1 WNW 10 15 1009.2 - 0.0 - - - - - - -
22/10:00pm 16.4 WNW 11 15 1008.8 - 0.0 - - - - - - -
22/09:30pm 16.6 WNW 10 13 1008.3 - 0.0 - - - - - - -
22/09:00pm 16.8 WNW 10 13 1007.9 - 0.0 - - - - - - -
22/08:30pm 17.1 WNW 11 15 1007.7 - 0.0 - - - - - - -
22/08:00pm 17.6 WNW 12 16 1007.3 - 0.0 - - - - - - -
22/07:30pm 18.2 W 12 18 1006.9 - 0.0 - - - - - - -
22/07:00pm 19.2 W 12 17 1006.2 - 0.0 - - - - - - -
22/06:30pm 20.6 WNW 10 14 1005.6 - 0.0 - - - - - - -
22/06:00pm 21.6 WNW 9 15 1005.6 - 0.0 - - - - - - -
22/05:30pm 21.0 WNW 13 18 1005.5 - 0.0 - - - - - - -
22/05:00pm 22.3 W 13 23 1004.3 - 0.0 - - - - - - -
22/04:46pm 23.8 W 13 17 1004.0 - 0.0 - - - - - - -
22/04:44pm 23.8 W 13 21 1004.0 - 0.0 - - - - - - -
22/04:30pm 28.8 NW 14 23 1003.8 - 0.0 - - - - - - -
22/04:00pm 30.2 NW 15 25 1003.8 - 0.0 - - - - - - -
22/03:33pm 30.4 NNW 15 25 1004.1 - 0.0 - - - - - - -
22/03:30pm 30.3 NNW 17 25 1004.1 - 0.0 - - - - - - -
22/03:20pm 30.0 NW 15 25 1004.2 - 0.0 - - - - - - -
22/03:00pm 28.5 NNW 13 25 1004.6 F 0.0 Fine Partly cloudy 20 2 1.0 8 SE
22/02:30pm 29.2 N 11 18 1005.1 - 0.0 - - - - - - -
22/02:00pm 27.6 N 11 19 1005.5 - 0.0 - - - - - - -
22/01:30pm 27.3 N 15 23 1005.8 - 0.0 - - - - - - -
22/01:00pm 25.7 N 11 18 1006.4 - 0.0 - - - - - - -
22/12:30pm 26.0 NNW 10 15 1006.4 - 0.0 - - - - - - -
22/12:00pm 24.8 NNW 13 21 1007.0 - 0.0 - - - - - - -
22/11:30am 23.4 N 17 27 1007.4 - 0.0 - - - - - - -
22/11:18am 22.1 N 17 27 1007.5 - 0.0 - - - - - - -
22/11:00am 22.0 N 10 18 1007.9 - 0.0 - - - - - - -
22/10:30am 19.1 E 7 14 1007.7 - 0.0 - - - - - - -
22/10:00am 21.3 NNE 10 15 1007.8 - 0.0 - - - - - - -
22/09:30am 22.1 N 11 16 1007.7 - 0.0 - - - - - - -
22/09:00am 19.1 NE 7 11 1007.9 F 0.2 Fine Mostly cloudy 20 1 1.0 8 SE
22/08:30am 17.1 NNE 9 13 1008.2 - 0.2 - - - - - - -
22/08:00am 14.9 N 9 12 1009.0 - 0.2 - - - - - - -
22/07:30am 14.8 N 11 15 1009.3 - 0.2 - - - - - - -
22/07:00am 13.4 NW 7 11 1009.7 - 0.0 - - - - - - -
22/06:30am 13.3 N 7 9 1010.0 - 0.0 - - - - - - -
22/06:00am 14.1 S 3 5 1009.9 - 0.0 - - - - - - -
22/05:30am 13.9 WNW 8 10 1010.4 - 0.0 - - - - - - -
22/05:00am 13.6 WNW 7 9 1010.5 - 0.0 - - - - - - -
22/04:30am 12.5 CALM 0 0 1009.9 - 0.0 - - - - - - -
22/04:00am 12.2 CALM 0 3 1010.0 - 0.0 - - - - - - -
22/03:30am 12.3 ENE 2 4 1009.3 - 0.0 - - - - - - -

Other Formats:

Comma delimited format used in spreadsheet applications
http://www.bom.gov.au/fwo/IDV60701/IDV60701.94842.axf

JavaScript Object Notation format (JSON) in row-major order
http://www.bom.gov.au/fwo/IDV60701/IDV60701.94842.json